Skip Page Navigation
NASA JPL Caltech
NASA Logo - Jet Propulsion Laboratory + View the NASA Portal
+ Center for Near-Earth Object Studies
JPL Home Earth Solar System Stars & Galaxies Technology
JPL Solar System Dynamics
BODIES ORBITS EPHEMERIDES TOOLS PHYSICAL DATA DISCOVERY FAQ SITE MAP
IMPORTANT: The SSD Announcement email list is now available. Major changes are coming in the near future, including possible hostname and/or URL changes. To be notified of such changes, subscribe to this email list.

Please visit this page for more details.


JPL Small-Body Database Browser
Search: [ help ]  
260 Huberta
Classification: Outer Main-belt Asteroid          SPK-ID: 2000260
Ephemeris | Orbit Diagram | Orbital Elements | Mission Design | Physical Parameters | Discovery Circumstances | Close-Approach Data ]

[ show orbit diagram ]
Orbital Elements at Epoch 2458600.5 (2019-Apr-27.0) TDB
Reference: JPL 105 (heliocentric ecliptic J2000)
 Element Value Uncertainty (1-sigma)   Units 
e .112443396897873 3.5143e-08  
a 3.45409176995434 1.6238e-08 au
q 3.065701958143687 1.2322e-07 au
i 6.404563737800989 4.0018e-06 deg
node 165.2819387699385 3.5022e-05 deg
peri 180.0688217270751 3.9396e-05 deg
M 265.7254874987783 1.9613e-05 deg
tp 2459214.532034674119
(2020-Dec-31.03203467)
0.00012952 TDB
period 2344.764524556075
6.42
1.6535e-05
4.527e-08
d
yr
n .1535335408864382 1.0827e-09 deg/d
Q 3.842481581764992 1.8064e-08 au
  Orbit Determination Parameters
   # obs. used (total)      3116  
   data-arc span      41176 days (112.73 yr)  
   first obs. used      1906-11-22  
   last obs. used      2019-08-17  
   planetary ephem.      DE431  
   SB-pert. ephem.      SB431-N16  
   condition code      0  
   norm. resid. RMS      .48129  
   source      ORB  
   producer      Otto Matic  
   solution date      2019-Sep-23 19:06:55  

Additional Information
 Earth MOID = 2.05747 au 
 Jupiter MOID = 1.57395 au 
 T_jup = 3.115 
[ show covariance matrix ]

Ephemeris | Orbit Diagram | Orbital Elements | Mission Design | Physical Parameters | Discovery Circumstances | Close-Approach Data ]

Physical Parameter Table
Parameter Symbol Value Units Sigma Reference Notes
absolute magnitude H 8.97   n/a IRAS-A-FPA-3-RDR-IMPS-V6.0 IRAS observations used: 3
diameter diameter 101.539 km 0.941 urn:nasa:pds:neowise_diameters_albedos::2.0[mainbelt] (http://adsabs.harvard.edu/abs/2014ApJ...791..121M)  
rotation period rot_per 8.29 h n/a LCDB (Rev. 2019-January); Warner et al., 2009 Published Reference List:
[Lagerkvist, C.-I.; Erikson, A.; Lahulla, F.; Di Martino, M.; et al. (2001) Icarus 149, 190-197.]
[Behrend, R. (2005) Observatoire de Geneve web site, http://obswww.unige.ch/~behrend/page_cou.html]
[Behrend, R. (2007) Observatoire de Geneve web site, http://obswww.unige.ch/~behrend/page_cou.html]
[Hanus, J.; Durech, J.; Broz, M.; Marciniak, A.; et al. (2013) Astron. Astrophys. 551, A67.]
[Waszczak, A.; Chang, C.-K.; Ofeck, E.O.; Laher, F.; et al. (2015) Astron. J. 150, A75.]
geometric albedo albedo 0.044   0.010 urn:nasa:pds:neowise_diameters_albedos::2.0[mainbelt] (http://adsabs.harvard.edu/abs/2014ApJ...791..121M)  
B-V BV 0.714   0.023 EAR-A-5-DDR-UBV-MEAN-VALUES-V1.2 #obs=1; phase=4.72 deg.
U-B UB 0.306   0.032 EAR-A-5-DDR-UBV-MEAN-VALUES-V1.2 #obs=1; phase=4.72 deg.
Tholen spectral type spec_T CX:   n/a EAR-A-5-DDR-TAXONOMY-V4.0 used 2 color indices

260 Huberta          Discovered 1886-Oct-03 by Palisa, J. at Vienna
Reference: DISCOVERY.DBLast Updated: 2003-08-29

[ show close-approach data ]
Alternate Designations
 A906 VH = A911 ME 
Ephemeris | Orbit Diagram | Orbital Elements | Mission Design | Physical Parameters | Discovery Circumstances | Close-Approach Data ]
ABOUT SSD CREDITS/AWARDS PRIVACY/COPYRIGHT GLOSSARY LINKS
FirstGov 2019-Oct-15 08:01 UT
(server date/time)  
NASA Home Page
Site Manager:   Ryan S. Park
Webmaster  Alan B. Chamberlin